Stations météo

réclame
Mon MeteoGroup
Alencon, France (7139): Température de l'air & dewpoint: 14.11.2017 12:00:00 - 20.11.2017 12:00:00 (CET)Alencon, France (7139): Température de l'air 5cm: 14.11.2017 12:00:00 - 20.11.2017 12:00:00 (CET)Alencon, France (7139): Température de l'air -20cm & Température de l'air -100cm: 14.11.2017 12:00:00 - 20.11.2017 12:00:00 (CET)Alencon, France (7139): Vitesse du vent & gusts: 14.11.2017 12:00:00 - 20.11.2017 12:00:00 (CET)Alencon, France (7139): Direction du vent: 14.11.2017 12:00:00 - 20.11.2017 12:00:00 (CET)Alencon, France (7139): reduced air pressure: 14.11.2017 12:00:00 - 20.11.2017 12:00:00 (CET)Alencon, France (7139): visibility: 14.11.2017 12:00:00 - 20.11.2017 12:00:00 (CET)Alencon, France (7139): Ensoleillement: 14.11.2017 12:00:00 - 20.11.2017 12:00:00 (CET)Alencon, France (7139): Quantités de précipitations: 14.11.2017 12:00:00 - 20.11.2017 12:00:00 (CET)
Date & Time tt [°C] td [°C] tt 5cm [°C] tt -20cm [°C] tt -100cm [°C] ff [km/h] ff [knt] fx [km/h] fx [knt] dd ppp [hPa] vv [km] sd [min] rr [mm]
20.11.2017 12:00:00 9,5 7,6 8,7 9,4 11,5 16 9 30 16 WSW 1023,6 18 0 0,2
20.11.2017 11:00:00 8,4 8,3 8,4 9,4 11,5 16 9 28 15 SW 1024,2 13 0 0,0
20.11.2017 10:00:00 8,2 8,2 7,7 9,4 11,5 10 5 21 11 SW 1024,1 3,3 0 0,0
20.11.2017 09:00:00 7,6 7,6 7,0 9,4 11,5 13 7 21 11 SSW 1023,4 0,4 0 0,0
20.11.2017 08:00:00 7,1 7,1 6,9 9,4 11,5 6 4 10 6 S 1023,7 0,2 0 0,0
20.11.2017 07:00:00 7,0 7,0 6,2 9,4 11,6 8 4 16 9 SSW 1023,9 0,1 0 0,0
20.11.2017 06:00:00 6,2 6,2 6,0 9,4 11,6 6 4 8 4 W 1024,4 0,2 0 0,0
20.11.2017 05:00:00 5,9 5,9 5,9 9,4 11,6 6 3 9 5 NW 1024,4 0,2 0 0,0
20.11.2017 04:00:00 6,4 6,4 5,6 9,5 11,6 3 2 9 5 SW 1024,4 0,2 0 0,0
20.11.2017 03:00:00 5,7 5,6 5,4 9,5 11,6 4 2 8 5 WSW 1025,0 0,2 0 0,0
20.11.2017 02:00:00 5,5 5,4 4,8 9,6 11,6 7 4 10 5 SW 1025,4 0,2 0 0,0
20.11.2017 01:00:00 4,3 4,0 -0,6 9,6 11,6 3 2 5 3 WNW 1026,0 12 0 0,0
20.11.2017 00:00:00 3,3 2,9 -0,6 9,7 11,6 0 0 4 2 N 1026,2 15 0 0,0
19.11.2017 23:00:00 3,9 3,5 0,8 9,7 11,6 0 0 6 3 N 1026,4 13 0 0,0
19.11.2017 22:00:00 4,3 3,7 0,4 9,7 11,6 4 2 6 4 N 1026,4 14 0 0,0
19.11.2017 21:00:00 5,1 4,1 3,2 9,8 11,6 3 1 5 3 N 1026,2 14 0 0,0
19.11.2017 20:00:00 5,7 4,7 0,9 9,8 11,6 0 0 4 2 N 1026,1 18 0 0,0
19.11.2017 19:00:00 5,3 3,5 0,7 9,8 11,6 2 1 4 2 W 1025,8 20 0 0,0
19.11.2017 18:00:00 7,4 4,7 3,1 9,7 11,6 0 0 6 3 N 1025,2 20 0 0,0
19.11.2017 17:00:00 9,6 5,6 9,1 9,6 11,6 6 3 9 5 N 1024,8 20 32 0,0
19.11.2017 16:00:00 10,6 5,1 11,0 9,6 11,6 6 4 9 5 N 1024,5 20 17 0,0
19.11.2017 15:00:00 10,1 4,5 12,2 9,5 11,6 0 0 13 7 N 1024,6 20 0 0,0
19.11.2017 14:00:00 10,0 4,6 12,5 9,5 11,6 7 4 16 9 NE 1024,8 20 16 0,0
19.11.2017 13:00:00 10,4 5,8 11,3 9,4 11,6 8 5 13 7 NE 1024,9 20 21 0,0
19.11.2017 12:00:00 10,2 6,0 15,3 9,4 11,6 7 4 13 7 ENE 1024,9 20 55 0,0
19.11.2017 11:00:00 9,4 7,7 8,2 9,4 11,6 4 2 10 6 E 1024,7 20 19 0,0
19.11.2017 10:00:00 8,2 7,4 8,0 9,4 11,6 4 2 9 5 ENE 1024,6 20 0 0,0
19.11.2017 09:00:00 8,1 7,5 7,4 9,4 11,6 8 4 30 16 NE 1023,8 13 3 0,0
19.11.2017 08:00:00 8,5 7,9 7,2 9,4 11,6 16 9 24 13 NW 1022,8 4,9 0 0,0
19.11.2017 07:00:00 8,4 7,8 7,0 9,4 11,6 17 9 27 15 WNW 1022,0 5 0 0,0
19.11.2017 06:00:00 8,2 7,6 7,2 9,5 11,6 16 9 28 15 WNW 1022,2 5 0 0,0
19.11.2017 05:00:00 8,1 7,3 7,1 9,5 11,7 16 9 24 13 W 1022,5 4,9 0 0,0
19.11.2017 04:00:00 7,6 6,8 6,5 9,5 11,6 14 7 26 14 W 1022,9 4,8 0 0,0
19.11.2017 03:00:00 6,6 5,9 6,1 9,5 11,6 6 4 14 7 SW 1023,4 5 0 0,0
19.11.2017 02:00:00 6,2 5,5 5,9 9,5 11,6 8 4 16 9 S 1023,6 4,8 0 0,0
19.11.2017 01:00:00 6,0 5,4 5,2 9,5 11,6 10 6 16 8 SW 1023,9 4,8 0 0,0
19.11.2017 00:00:00 5,7 5,3 4,4 9,5 11,6 8 4 14 7 SSW 1024,6 4,1 0 0,0
18.11.2017 23:00:00 5,0 4,6 4,5 9,6 11,6 6 4 9 5 S 1025,0 3,5 0 0,0
18.11.2017 22:00:00 5,0 4,6 4,5 9,6 11,7 9 5 16 9 SSW 1025,3 3,9 0 0,0
18.11.2017 21:00:00 5,0 4,7 4,2 9,6 11,7 9 5 16 8 WSW 1025,4 4,2 0 0,0
18.11.2017 20:00:00 5,1 4,5 5,0 9,6 11,6 10 5 16 8 SW 1026,0 3,3 0 0,0
18.11.2017 19:00:00 5,6 5,2 5,3 9,6 11,7 10 5 14 8 WSW 1026,1 5 0 0,0
18.11.2017 18:00:00 5,6 5,5 5,2 9,5 11,7 9 5 15 8 SSW 1026,1 2,1 0 0,0
18.11.2017 17:00:00 5,1 4,8 5,3 9,5 11,7 9 5 17 9 SW 1026,3 2,0 0 0,0
18.11.2017 16:00:00 5,8 5,2 6,9 9,5 11,7 10 5 17 9 SSW 1026,5 5 0 0,0
18.11.2017 15:00:00 5,8 4,9 7,8 9,4 11,7 8 5 12 7 S 1026,9 8 7 0,0
18.11.2017 14:00:00 5,9 5,6 8,6 9,4 11,7 4 2 10 6 SSW 1027,4 7 4 0,0
18.11.2017 13:00:00 5,2 5,2 6,9 9,4 11,7 3 2 10 6 S 1027,8 4,2 0 0,0
18.11.2017 12:00:00 4,7 4,7 6,4 9,4 11,7 5 3 8 4 WSW 1028,3 0,4 0 0,0
18.11.2017 11:00:00 4,3 4,3 5,2 9,3 11,7 2 1 5 3 ESE 1028,3 0,3 0 0,0
18.11.2017 10:00:00 3,5 3,5 4,2 9,4 11,7 0 0 5 3 N 1028,2 0,2 0 0,0
18.11.2017 09:00:00 3,3 3,3 3,6 9,4 11,7 0 0 7 4 N 1028,0 0,2 0 0,2
18.11.2017 08:00:00 3,7 3,7 3,9 9,4 11,7 3 2 9 5 WNW 1027,7 0,3 0 0,0
18.11.2017 07:00:00 4,1 4,1 4,0 9,5 11,7 5 3 7 4 NNW 1027,2 0,2 0 0,0
18.11.2017 06:00:00 3,8 3,8 3,9 9,5 11,7 3 2 10 5 W 1027,4 0,4 0 0,0
18.11.2017 05:00:00 4,5 4,5 4,8 9,5 11,7 6 3 10 5 N 1027,7 0,2 0 0,0
18.11.2017 04:00:00 5,4 5,4 5,3 9,5 11,7 6 3 13 7 NNE 1027,5 0,6 0 0,0
18.11.2017 03:00:00 5,6 5,6 5,6 9,5 11,8 5 3 14 8 N 1027,8 0,3 0 0,0
18.11.2017 02:00:00 5,9 5,9 5,6 9,5 11,8 8 5 13 7 NNE 1027,6 0,1 0 0,0
18.11.2017 01:00:00 5,7 5,6 5,8 9,5 11,7 4 2 8 5 NNE 1027,8 0,1 0 0,0
18.11.2017 00:00:00 5,9 5,8 4,8 9,6 11,7 3 1 5 3 N 1028,1 0,6 0 0,0
17.11.2017 23:00:00 5,4 5,3 -0,2 9,6 11,7 2 1 5 3 SSE 1028,4 0,1 0 0,0
17.11.2017 22:00:00 4,4 4,0 -0,2 9,6 11,7 3 2 11 6 NNW 1028,4 1,1 0 0,0
17.11.2017 21:00:00 5,5 4,8 2,7 9,6 11,7 9 5 10 6 N 1028,3 4,1 0 0,0
17.11.2017 20:00:00 8,3 7,5 6,4 9,6 11,8 4 2 6 3 N 1028,1 4,2 0 0,0
17.11.2017 19:00:00 8,8 7,7 7,4 9,5 11,8 3 1 10 5 NE 1028,0 5 0 0,0
17.11.2017 18:00:00 8,9 8,0 8,5 9,5 11,8 5 3 13 7 N 1027,4 4,4 0 0,0
17.11.2017 17:00:00 9,1 7,9 8,9 9,4 11,8 7 4 16 8 NE 1027,6 6 0 0,0
17.11.2017 16:00:00 9,3 7,7 9,7 9,4 11,8 8 4 20 11 N 1027,9 8 0 0,0
17.11.2017 15:00:00 9,0 7,8 10,3 9,4 11,8 14 7 21 12 NNE 1028,0 7 0 0,0
17.11.2017 14:00:00 9,0 7,9 10,0 9,3 11,8 13 7 21 11 NE 1027,9 6 0 0,0
17.11.2017 13:00:00 8,7 7,6 10,4 9,2 11,8 13 7 19 11 ENE 1028,0 6 0 0,0
17.11.2017 12:00:00 9,3 8,1 11,9 9,3 11,8 14 7 19 10 ENE 1028,3 8 40 0,0
17.11.2017 11:00:00 8,9 7,2 10,5 9,3 11,8 8 5 13 7 ENE 1028,4 9 55 0,0
17.11.2017 10:00:00 6,3 6,2 2,9 9,3 11,8 5 3 9 5 NE 1028,2 5 50 0,0
17.11.2017 09:00:00 3,9 3,8 0,3 9,3 11,8 4 2 9 5 ESE 1028,2 1,6 0 0,0
17.11.2017 08:00:00 4,4 4,4 4,3 9,4 11,8 0 0 5 3 N 1027,9 4,6 0 0,0
17.11.2017 07:00:00 3,8 3,8 2,5 9,5 11,8 2 1 4 2 NNW 1027,9 2,8 0 0,0
17.11.2017 06:00:00 2,4 2,3 -0,3 9,5 11,8 0 0 4 2 N 1027,8 0,4 0 0,2
17.11.2017 05:00:00 1,4 1,3 -0,5 9,6 11,8 0 0 6 3 N 1027,6 0,1 0 0,0
17.11.2017 04:00:00 1,9 1,8 -1,4 9,7 11,8 4 2 5 3 N 1027,6 0,1 0 0,0
17.11.2017 03:00:00 2,1 1,8 -1,5 9,7 11,8 0 0 3 2 N 1027,4 0,2 0 0,0
17.11.2017 02:00:00 2,6 2,3 -1,6 9,8 11,8 0 0 3 2 N 1027,3 0,2 0 0,0
17.11.2017 01:00:00 3,2 2,8 -0,9 9,8 11,8 3 1 6 3 NNE 1027,1 0,2 0 0,0
17.11.2017 00:00:00 3,9 3,3 0,5 9,8 11,8 6 3 7 4 N 1026,9 2,3 0 0,0
16.11.2017 23:00:00 5,5 5,1 2,4 9,9 11,8 0 0 5 3 N 1026,9 5 0 0,0
16.11.2017 22:00:00 5,5 4,8 2,0 9,9 11,8 2 1 6 3 S 1026,7 7 0 0,0
16.11.2017 21:00:00 5,8 5,1 2,5 9,9 11,8 3 1 8 4 NE 1026,5 8 0 0,0
16.11.2017 20:00:00 6,5 5,4 4,7 9,9 11,8 4 2 7 4 N 1026,0 7 0 0,0
16.11.2017 19:00:00 6,9 6,0 4,8 9,9 11,8 3 2 6 3 N 1025,6 10 0 0,0
16.11.2017 18:00:00 7,6 5,7 5,2 9,8 11,9 3 2 5 3 NE 1025,3 11 0 0,0
16.11.2017 17:00:00 8,4 6,4 7,8 9,8 11,8 3 2 5 3 NNE 1025,0 14 0 0,0
16.11.2017 16:00:00 8,7 6,0 10,5 9,7 11,8 0 0 5 3 N 1024,5 19 0 0,0
16.11.2017 15:00:00 8,6 5,9 11,9 9,7 11,8 0 0 5 3 N 1024,6 16 0 0,0
16.11.2017 14:00:00 8,2 5,8 12,8 9,6 11,8 0 0 6 4 N 1024,8 15 2 0,0
16.11.2017 13:00:00 7,4 5,7 9,4 9,6 11,9 4 2 8 4 NNE 1025,2 14 0 0,0
16.11.2017 12:00:00 6,5 5,3 7,6 9,6 11,9 3 2 8 4 E 1025,6 13 0 0,0
16.11.2017 11:00:00 6,0 5,4 7,4 9,7 11,9 0 0 9 5 N 1025,7 9 0 0,0
16.11.2017 10:00:00 5,7 5,4 5,6 9,6 11,9 0 0 10 5 N 1025,5 7 - -
16.11.2017 09:00:00 - - - - - - - - - - - - - -
16.11.2017 08:00:00 5,6 5,5 5,2 9,7 11,9 0 0 6 3 N 1024,7 2,2 0 0,0
16.11.2017 07:00:00 5,5 5,4 5,2 9,7 11,9 4 2 7 4 ENE 1024,6 1,0 0 0,0
16.11.2017 06:00:00 5,7 5,4 5,4 9,7 11,9 0 0 9 5 N 1024,3 0,3 0 0,0
16.11.2017 05:00:00 6,4 6,1 5,8 9,7 11,9 5 3 8 5 E 1024,2 2,8 0 0,0
16.11.2017 04:00:00 6,5 6,2 5,2 9,8 11,9 4 2 8 4 NE 1024,7 1,3 0 0,0
16.11.2017 03:00:00 6,7 6,3 4,0 9,7 11,9 4 2 5 3 E 1024,8 6 0 0,0
16.11.2017 02:00:00 6,9 6,3 4,5 9,8 11,9 0 0 5 3 N 1024,5 7 0 0,0
16.11.2017 01:00:00 7,5 6,6 5,6 9,8 11,9 4 2 8 4 W 1024,9 9 0 0,0
16.11.2017 00:00:00 7,9 6,7 6,0 9,8 11,9 2 1 7 4 SSW 1025,0 14 0 0,0
15.11.2017 23:00:00 8,1 7,0 6,2 9,7 11,9 2 1 7 4 N 1025,4 15 0 0,0
15.11.2017 22:00:00 8,6 7,2 7,5 9,7 11,9 2 1 5 3 N 1025,4 18 0 0,0
15.11.2017 21:00:00 8,6 7,1 7,7 9,7 11,9 0 0 3 2 N 1025,5 15 0 0,0
15.11.2017 20:00:00 9,0 7,0 7,4 9,7 12,0 0 0 6 3 N 1025,4 20 0 0,0
15.11.2017 19:00:00 9,3 6,7 7,5 9,6 12,0 0 0 3 2 N 1025,4 20 0 0,0
15.11.2017 18:00:00 9,6 6,5 7,8 9,6 12,0 3 2 4 2 NNE 1025,5 20 0 0,0
15.11.2017 17:00:00 10,8 6,3 9,8 9,5 12,0 3 2 7 4 ESE 1025,5 20 0 0,0
15.11.2017 16:00:00 10,9 7,0 11,5 9,4 12,0 4 2 7 4 NNE 1025,8 20 0 0,0
15.11.2017 15:00:00 11,0 6,5 12,7 9,3 12,0 2 1 6 3 NNW 1025,9 20 0 0,0
15.11.2017 14:00:00 11,3 6,2 13,3 9,2 12,0 0 0 7 4 N 1025,8 18 0 0,0
15.11.2017 13:00:00 10,4 6,0 13,0 9,2 12,0 3 2 8 5 SSW 1026,5 18 6 0,0
15.11.2017 12:00:00 10,1 6,4 11,9 9,1 12,0 4 2 7 4 S 1027,1 16 7 0,0
15.11.2017 11:00:00 8,3 5,9 9,9 9,2 12,0 0 0 5 3 N 1027,3 15 0 0,0
15.11.2017 10:00:00 7,0 5,3 6,3 9,2 12,1 0 0 3 2 N 1027,3 12 10 0,0
15.11.2017 09:00:00 6,1 4,9 5,7 9,2 12,1 0 0 5 3 N 1027,6 11 0 0,0
15.11.2017 08:00:00 6,0 5,0 5,4 9,1 12,1 0 0 4 2 N 1027,2 10 0 0,0
15.11.2017 07:00:00 6,0 5,0 5,0 9,2 12,1 0 0 2 1 N 1027,0 13 0 0,0
15.11.2017 06:00:00 6,1 4,9 5,1 9,1 12,1 0 0 4 2 N 1026,9 14 0 0,0
15.11.2017 05:00:00 6,1 5,1 4,5 9,1 12,1 0 0 4 2 N 1027,1 13 0 -
15.11.2017 04:00:00 6,7 5,0 5,9 9,1 12,1 4 2 7 4 S 1027,3 17 0 0,0
15.11.2017 03:00:00 6,6 5,1 5,8 9,1 12,1 4 2 6 3 S 1027,7 17 0 0,0
15.11.2017 02:00:00 6,7 5,2 5,7 9,2 12,1 3 1 6 3 S 1027,6 16 0 0,0
15.11.2017 01:00:00 6,8 5,1 5,2 9,1 12,2 4 2 7 4 S 1027,7 15 0 0,0
15.11.2017 00:00:00 6,9 4,9 4,9 9,1 12,2 4 2 6 4 SSW 1027,8 18 0 0,0
14.11.2017 23:00:00 7,0 5,0 5,2 9,1 12,2 0 0 8 5 N 1027,9 19 0 0,0
14.11.2017 22:00:00 7,4 5,2 6,1 9,1 12,2 5 3 7 4 SW 1028,0 20 0 0,0
14.11.2017 21:00:00 7,8 5,1 6,8 9,1 12,2 3 2 7 4 SW 1028,1 20 0 0,0
14.11.2017 20:00:00 7,9 5,0 6,9 9,0 12,2 3 1 8 5 SSW 1028,0 20 0 0,0
14.11.2017 19:00:00 8,4 5,1 6,7 9,0 12,2 6 4 10 5 SSW 1028,0 20 0 0,0
14.11.2017 18:00:00 8,3 5,2 7,0 8,9 12,2 5 3 12 6 WSW 1027,7 20 0 0,0
14.11.2017 17:00:00 8,9 5,1 8,4 8,9 12,2 8 4 11 6 WSW 1027,5 20 0 0,0
14.11.2017 16:00:00 9,1 4,7 9,1 8,8 12,2 8 5 13 7 WSW 1027,4 20 0 0,0
14.11.2017 15:00:00 9,2 4,8 9,7 8,7 12,2 9 5 13 7 WSW 1027,7 20 0 0,0
14.11.2017 14:00:00 9,4 4,6 11,7 8,8 12,3 8 4 17 9 WSW 1027,9 20 26 0,0
14.11.2017 13:00:00 9,2 4,6 9,6 8,7 12,3 10 6 15 8 W 1028,3 20 15 0,0
14.11.2017 12:00:00 7,8 4,4 9,5 8,8 12,3 8 4 11 6 WSW 1028,8 20 13 0,0

tt = Température de l'air
td = dewpoint
tt 5cm = Température de l'air 5cm
tt -20cm = Température de l'air -20cm
tt -100cm = Température de l'air -100cm
ff = Vitesse du vent
fx = gusts
dd = Direction du vent
ppp = reduced air pressure
vv = visibility
sd = Ensoleillement
rr = Quantités de précipitations

stations d'obs. à proximité